Location: Camp Creek
(33.9000°N, 111.8167°W)
Time: 08:40:29
(UTC-07:00)

DELTA 2 R/B (1) - Visible Passes

Search period start: 25 September 2016 00:00
Search period end: 05 October 2016 00:00
Orbit: 790 x 804 km, 39.6° (Epoch: 23 September)

Date Brightness Start Highest point End Pass type
(mag) Time Alt. Az. Time Alt. Az. Time Alt. Az.
25 Sep 6.1 02:59:55 14° E 02:59:55 14° E 03:00:54 10° E visible
25 Sep 3.5 04:40:42 41° SW 04:42:41 80° SSE 04:48:16 10° ENE visible
26 Sep 3.5 04:11:43 74° S 04:11:53 75° SSE 04:17:27 10° ENE visible
27 Sep 4.4 03:42:40 46° E 03:42:40 46° E 03:46:38 10° ENE visible
27 Sep 4.0 05:23:27 16° W 05:27:43 53° N 05:33:10 10° ENE visible
28 Sep 5.6 03:13:35 24° ENE 03:13:35 24° ENE 03:15:49 10° ENE visible
28 Sep 3.9 04:54:22 30° WNW 04:56:52 55° NNW 05:02:21 10° ENE visible
29 Sep 6.4 02:44:29 13° ENE 02:44:29 13° ENE 02:44:59 10° ENE visible
29 Sep 3.8 04:25:15 52° NW 04:26:03 57° NNW 04:31:32 10° ENE visible
30 Sep 4.1 03:56:08 52° NNE 03:56:08 52° NNE 04:00:43 10° ENE visible
30 Sep 4.3 05:36:54 10° WNW 05:42:12 47° N 05:47:36 10° ENE visible
01 Oct 5.2 03:27:00 31° NE 03:27:00 31° NE 03:29:53 10° ENE visible
01 Oct 4.2 05:07:46 20° WNW 05:11:21 47° N 05:16:44 10° ENE visible
02 Oct 6.1 02:57:52 17° ENE 02:57:52 17° ENE 02:59:05 10° ENE visible
02 Oct 4.2 04:38:39 34° NW 04:40:31 46° N 04:45:53 10° ENE visible
03 Oct 4.2 04:09:33 46° N 04:09:40 46° N 04:15:01 10° ENE visible
03 Oct 3.8 05:51:02 10° WNW 05:56:35 70° NNE 06:02:09 10° ESE visible
04 Oct 4.9 03:40:28 36° NE 03:40:28 36° NE 03:44:10 10° ENE visible
04 Oct 3.8 05:21:15 16° WNW 05:25:46 67° NNE 05:31:19 10° E visible
